Weather History for Naples, FL

Change the Weather History Date:

Thursday, May 2, 2013

  Actual Average Record
Temperature  
Mean Temperature 73 °F 76 °F  
Max Temperature 79 °F 86 °F 93 °F (2011)
Min Temperature 67 °F 66 °F 52 °F (1992)
Degree Days  
Heating Degree Days 0 0  
Month to date heating degree days 0 0  
Since 1 July heating degree days 182 260  
Cooling Degree Days 8 11  
Month to date cooling degree days 18 22  
Year to date cooling degree days 755 642  
Growing Degree Days 20 (Base 50)    
Moisture  
Dew Point 68 °F    
Average Humidity 90    
Maximum Humidity 100    
Minimum Humidity 79    
Precipitation  
Precipitation 0.83 in 0.07 in 1.25 in (1955)
Month to date precipitation 1.40 0.13  
Year to date precipitation 8.27 8.82  
Snow  
Snow 0.00 in - - ()
Month to date snowfall 0.0  
Since 1 July snowfall 0.0  
Snow Depth 0.00 in    
Sea Level Pressure  
Sea Level Pressure 29.89 in    
Wind  
Wind Speed 4 mph (ENE)    
Max Wind Speed 13 mph    
Max Gust Speed 17 mph    
Visibility 8 miles    
Events Rain , Thunderstorm    
T = Trace of Precipitation, MM = Missing Value Source: NWS Daily Summary

Daily Weather History Graph

Daily Weather History Graph

Search for Another Location

Airport:

Trip Planner

Search our weather history database for the weather conditions in past years. The results will help you decide how hot, cold, wet, or windy it might be!

Date:

Astronomy

May. 02, 2013 Rise Set
Actual Time 6:48 AM EDT 7:59 PM EDT
Civil Twilight 6:24 AM EDT 8:23 PM EDT
Nautical Twilight 5:55 AM EDT 8:52 PM EDT
Astronomical Twilight 5:25 AM EDT 9:22 PM EDT
Moon 1:52 AM EDT (5/2) 1:27 PM EDT (5/2)
Length of Visible Light 13h 59m
Length of Day
13h 10m
Waning Gibbous, 48% of the Moon is Illuminated
May 2
Waning Gibbous
May 9
New
May 18
First Quarter
May 25
Full
May 31
Last Quarter

Hourly Weather History & Observations

Time (EDT) Temp. Dew Point Humidity Pressure Visibility Wind Dir Wind Speed Gust Speed Precip Events Conditions
12:53 AM 69.1 °F 66.9 °F 93% 29.94 in 10.0 mi ESE 3.5 mph - N/A   Partly Cloudy
1:13 AM 69.8 °F 66.2 °F 88% 29.93 in 10.0 mi East 3.5 mph - N/A   Mostly Cloudy
1:28 AM 69.8 °F 66.2 °F 88% 29.92 in 10.0 mi ENE 3.5 mph - N/A   Scattered Clouds
1:40 AM 69.8 °F 66.2 °F 88% 29.92 in 10.0 mi Calm Calm - N/A   Scattered Clouds
1:49 AM 69.8 °F 66.2 °F 88% 29.92 in 10.0 mi ENE 4.6 mph - N/A   Mostly Cloudy
1:53 AM 69.1 °F 66.9 °F 93% 29.92 in 10.0 mi ENE 4.6 mph - N/A   Scattered Clouds
2:53 AM 69.1 °F 66.9 °F 93% 29.91 in 10.0 mi Calm Calm - N/A   Mostly Cloudy
3:25 AM 69.8 °F 66.2 °F 88% 29.90 in 10.0 mi East 4.6 mph - N/A   Mostly Cloudy
3:53 AM 69.1 °F 66.9 °F 93% 29.88 in 10.0 mi East 5.8 mph - N/A   Clear
4:53 AM 69.1 °F 66.9 °F 93% 29.89 in 10.0 mi East 3.5 mph - N/A   Mostly Cloudy
5:53 AM 69.1 °F 66.9 °F 93% 29.88 in 10.0 mi East 5.8 mph - N/A   Overcast
6:53 AM 69.1 °F 68.0 °F 96% 29.89 in 5.0 mi SE 3.5 mph - 0.01 in Rain Light Rain
7:38 AM 69.8 °F 69.8 °F 100% 29.91 in 1.8 mi SE 8.1 mph - 0.24 in Rain Heavy Rain
7:53 AM 71.1 °F 69.1 °F 93% 29.90 in 1.8 mi ESE 9.2 mph - 0.47 in Rain Heavy Rain
8:00 AM 71.6 °F 71.6 °F 100% 29.90 in 2.0 mi ESE 6.9 mph - 0.03 in Rain Heavy Rain
8:27 AM 71.6 °F 71.6 °F 100% 29.90 in 3.0 mi Calm Calm - 0.07 in Rain Light Rain
8:53 AM 72.0 °F 72.0 °F 100% 29.91 in 6.0 mi Calm Calm - 0.07 in   Overcast
9:12 AM 71.6 °F 71.6 °F 100% 29.90 in 6.0 mi NE 4.6 mph - N/A   Overcast
9:38 AM 71.6 °F 71.6 °F 100% 29.92 in 3.0 mi NNE 3.5 mph - 0.00 in Rain Light Rain
9:53 AM 71.8 °F 71.1 °F 98% 29.92 in 3.0 mi NE 3.5 mph - 0.00 in   Overcast
10:53 AM 71.8 °F 71.1 °F 98% 29.93 in 6.0 mi North 5.8 mph - 0.00 in Rain Light Rain
11:14 AM 71.6 °F 69.8 °F 94% 29.92 in 7.0 mi NNE 6.9 mph - 0.01 in Rain Light Rain
11:34 AM 71.6 °F 69.8 °F 94% 29.92 in 7.0 mi NNE 5.8 mph - 0.01 in Rain , Thunderstorm Light Rain
11:53 AM 71.1 °F 70.0 °F 96% 29.92 in 6.0 mi NNE 4.6 mph - 0.03 in Rain Light Rain
12:09 PM 71.6 °F 68.0 °F 88% 29.92 in 5.0 mi NNE 3.5 mph - 0.01 in Rain , Thunderstorm Light Thunderstorms and Rain
12:53 PM 70.0 °F 68.0 °F 93% 29.89 in 6.0 mi East 6.9 mph - 0.07 in Rain Light Rain
1:22 PM 69.8 °F 68.0 °F 94% 29.90 in 4.0 mi WNW 3.5 mph - 0.02 in Rain , Thunderstorm Light Rain
1:37 PM 69.8 °F 68.0 °F 94% 29.90 in 3.0 mi West 4.6 mph - 0.05 in Rain Light Rain
1:53 PM 70.0 °F 68.0 °F 93% 29.91 in 3.0 mi West 4.6 mph - 0.09 in Rain Rain
2:34 PM 69.8 °F 68.0 °F 94% 29.91 in 6.0 mi SSE 8.1 mph - 0.03 in Rain , Thunderstorm Light Rain
2:53 PM 70.0 °F 68.0 °F 93% 29.89 in 6.0 mi SSE 5.8 mph - 0.04 in Rain Light Rain
3:53 PM 70.0 °F 69.1 °F 97% 29.86 in 7.0 mi Calm Calm - 0.05 in Rain Light Rain
4:53 PM 71.1 °F 66.9 °F 87% 29.83 in 9.0 mi ENE 4.6 mph - 0.00 in   Clear
5:53 PM 73.0 °F 66.9 °F 81% 29.81 in 10.0 mi NE 8.1 mph - N/A   Clear
6:53 PM 73.9 °F 66.9 °F 79% 29.82 in 10.0 mi ENE 9.2 mph - N/A   Clear
7:53 PM 72.0 °F 66.0 °F 81% 29.82 in 10.0 mi ENE 6.9 mph - N/A   Clear
8:32 PM 71.6 °F 66.2 °F 83% 29.84 in 10.0 mi East 6.9 mph - N/A   Mostly Cloudy
8:45 PM 71.6 °F 66.2 °F 83% 29.84 in 10.0 mi East 6.9 mph - N/A   Mostly Cloudy
8:53 PM 71.1 °F 68.0 °F 90% 29.84 in 10.0 mi East 6.9 mph - N/A   Mostly Cloudy
9:02 PM 71.6 °F 68.0 °F 88% 29.84 in 10.0 mi East 4.6 mph - N/A   Scattered Clouds
9:53 PM 70.0 °F 66.9 °F 90% 29.85 in 10.0 mi East 5.8 mph - N/A   Clear
10:13 PM 69.8 °F 66.2 °F 88% 29.85 in 10.0 mi East 6.9 mph - N/A   Scattered Clouds
10:22 PM 69.8 °F 66.2 °F 88% 29.85 in 10.0 mi East 5.8 mph - N/A   Mostly Cloudy
10:53 PM 69.1 °F 66.0 °F 90% 29.86 in 10.0 mi East 5.8 mph - N/A   Scattered Clouds
11:06 PM 69.8 °F 66.2 °F 88% 29.86 in 10.0 mi Calm Calm - N/A   Mostly Cloudy
11:18 PM 68.0 °F 66.2 °F 94% 29.86 in 10.0 mi Calm Calm - N/A   Scattered Clouds
11:53 PM 68.0 °F 66.0 °F 93% 29.85 in 10.0 mi Calm Calm - N/A   Clear